Weather in Panaji

India     15˚28′25″N   73˚50′31″E
temp.,
°C
wind,
m/s
gust,
m/s
humid.,
%
clouds,
%
prec.,
mm/h
press.,
hPa
HPBL,
m
2 december, wed
wed223:30+27˚ese346522 0.0 1013308
02:30+25˚ene335761 0.0 1012137
05:30+24˚e446080 0.0 1012142
08:30+25˚ene4562100 0.0 1014184
11:30+29˚ene1447100 0.0 1013667
14:30+29˚w6556100 0.0 1010375
17:30+28˚wnw676479 0.0 1009270
20:30+28˚nnw56730 0.0 1012268
3 december, thu
thu323:30+25˚e346213 0.0 1011148
02:30+24˚e455379 0.0 1010147
05:30+24˚ene455789 0.0 1011147
08:30+25˚e4561100 0.0 1014199
11:30+29˚ne1348100 0.0 1013532
14:30+29˚wnw665886 0.0 1009591
17:30+28˚nw686576 0.0 1009296
20:30+27˚nnw5770100 0.0 1011321
4 december, fri
fri423:30+26˚nne3466100 0.0 1011225
02:30+25˚e3360100 0.0 1009118
05:30+25˚e4565100 0.0 1009155
08:30+25˚ene4568100 0.0 1012195
11:30+30˚nw125199 0.0 1011395
14:30+29˚wnw6661100 0.0 1007330
17:30+29˚nw5769100 0.0 1007227
20:30+28˚nnw5673100 0.0 1010208
5 december, sat
sat523:30+27˚e3366100 0.0 1010110
02:30+26˚ene4466100 0.0 1009160
05:30+25˚ene3471100 0.0 1009211
08:30+26˚ene346796 0.0 1011251
11:30+30˚nw235465 0.0 1010466
14:30+30˚wnw566039 0.0 1007600
17:30+28˚nnw6770100 0.0 1007183
20:30+28˚nne337333 0.0 100968
6 december, sun
sun623:30+28˚e576217 0.0 1010197
02:30+27˚e696654 0.0 1009514
05:30+26˚e596677 0.0 1010473
08:30+26˚e4664100 0.0 1013349
11:30+30˚ene245698 0.0 1012428
14:30+31˚wnw255882 0.0 1009553
17:30+29˚nnw456491 0.0 1009141
20:30+28˚ene3366100 0.0 101185